Alamogordo, NM

4:29 PM MST on November 21, 2019 (GMT -0700)
Alamogordo-White Sands Regional

Weather History for KALM - September, 2019

Change the Weather History Date:

Sunday, September 1, 2019

  Actual Average Record
Temperature  
Mean Temperature 76 °F -  
Max Temperature 91 °F 88 °F 98 °F (1948)
Min Temperature 62 °F 62 °F 53 °F (1955)
Cooling Degree Days 10    
Growing Degree Days 26 (Base 50)    
Moisture  
Dew Point 50 °F    
Average Humidity 42    
Maximum Humidity 72    
Minimum Humidity 23    
Precipitation  
Precipitation 0.00 in - - ()
Sea Level Pressure  
Sea Level Pressure 30.20 in    
Wind  
Wind Speed 4 mph ()    
Max Wind Speed 10 mph    
Max Gust Speed 16 mph    
Visibility 10.0 miles    
Events      
Averages and records for this station are not official NWS values.
T = Trace of Precipitation, MM = Missing Value Source: Averaged Metar Reports

Daily Weather History Graph

Daily Weather History Graph

Search for Another Location

Airport or City:

Astronomy

Sep. 01, 2019 Rise Set
Actual Time 6:38 AM MDT 7:28 PM MDT
Civil Twilight 6:13 AM MDT 7:54 PM MDT
Nautical Twilight 5:43 AM MDT 8:23 PM MDT
Astronomical Twilight 5:13 AM MDT 8:54 PM MDT
Moon 9:05 AM MDT (9/1) 9:26 PM MDT (9/1)
Length of Visible Light 13h 40m
Length of Day
12h 50m
Waxing Crescent, 8% of the Moon is Illuminated
Sep 1
Waxing Crescent
Sep 5
First Quarter
Sep 13
Full
Sep 21
Last Quarter
Sep 28
New

Hourly Weather History & Observations

Time (MDT) Temp. Dew Point Humidity Pressure Visibility Wind Dir Wind Speed Gust Speed Precip Events Conditions
12:15 AM 75.2 °F 48.2 °F 38% 30.15 in 10.0 mi Calm Calm - N/A   Clear
12:35 AM 77.0 °F 46.4 °F 34% 30.15 in 10.0 mi SE 3.5 mph - N/A   Clear
12:55 AM 73.4 °F 50.0 °F 44% 30.16 in 10.0 mi SE 3.5 mph - N/A   Clear
1:15 AM 71.6 °F 50.0 °F 46% 30.17 in 10.0 mi WNW 3.5 mph - N/A   Clear
1:35 AM 73.4 °F 50.0 °F 44% 30.17 in 10.0 mi Calm Calm - N/A   Clear
1:55 AM 71.6 °F 50.0 °F 46% 30.17 in 10.0 mi Calm Calm - N/A   Clear
2:15 AM 73.4 °F 50.0 °F 44% 30.17 in 10.0 mi Calm Calm - N/A   Clear
2:35 AM 71.6 °F 50.0 °F 46% 30.17 in 10.0 mi NNW 4.6 mph - N/A   Clear
2:55 AM 71.6 °F 50.0 °F 46% 30.17 in 10.0 mi North 3.5 mph - N/A   Clear
3:15 AM 69.8 °F 50.0 °F 49% 30.17 in 10.0 mi NE 8.1 mph - N/A   Clear
3:35 AM 68.0 °F 50.0 °F 52% 30.16 in 10.0 mi NNE 6.9 mph - N/A   Clear
3:55 AM 71.6 °F 50.0 °F 46% 30.17 in 10.0 mi WNW 6.9 mph - N/A   Clear
4:15 AM 69.8 °F 50.0 °F 49% 30.17 in 10.0 mi NW 9.2 mph - N/A   Clear
4:55 AM 68.0 °F 50.0 °F 52% 30.19 in 10.0 mi NNE 3.5 mph - N/A   Clear
5:15 AM 68.0 °F 50.0 °F 52% 30.20 in 10.0 mi NE 6.9 mph - N/A   Unknown
5:35 AM 68.0 °F 50.0 °F 52% 30.20 in 10.0 mi NE 5.8 mph - N/A   Unknown
5:55 AM 71.6 °F 48.2 °F 43% 30.20 in 10.0 mi North 8.1 mph - N/A   Unknown
6:15 AM 71.6 °F 50.0 °F 46% 30.20 in 10.0 mi North 4.6 mph - N/A   Unknown
6:35 AM 66.2 °F 50.0 °F 56% 30.21 in 10.0 mi Calm Calm - N/A   Unknown
6:55 AM 66.2 °F 50.0 °F 56% 30.21 in 10.0 mi NNE 3.5 mph - N/A   Unknown
7:15 AM 64.4 °F 50.0 °F 59% 30.22 in 10.0 mi NNE 3.5 mph - N/A   Unknown
7:35 AM 62.6 °F 53.6 °F 72% 30.22 in 10.0 mi ENE 6.9 mph - N/A   Unknown
7:55 AM 68.0 °F 51.8 °F 56% 30.23 in 10.0 mi East 4.6 mph - N/A   Unknown
8:15 AM 75.2 °F 53.6 °F 47% 30.23 in 10.0 mi Calm Calm - N/A   Unknown
8:35 AM 77.0 °F 50.0 °F 39% 30.24 in 10.0 mi SW 3.5 mph - N/A   Unknown
8:55 AM 77.0 °F 50.0 °F 39% 30.24 in 10.0 mi West 5.8 mph - N/A   Unknown
9:15 AM 78.8 °F 50.0 °F 36% 30.24 in 10.0 mi WNW 6.9 mph - N/A   Unknown
9:35 AM 80.6 °F 51.8 °F 37% 30.24 in 10.0 mi WSW 4.6 mph - N/A   Unknown
9:55 AM 82.4 °F 50.0 °F 32% 30.24 in 10.0 mi WSW 6.9 mph - N/A   Unknown
10:15 AM 84.2 °F 50.0 °F 30% 30.24 in 10.0 mi WSW 6.9 mph - N/A   Unknown
10:35 AM 86.0 °F 50.0 °F 29% 30.25 in 10.0 mi WSW 8.1 mph - N/A   Unknown
10:55 AM 86.0 °F 50.0 °F 29% 30.24 in 10.0 mi SSE 8.1 mph - N/A   Unknown
11:15 AM 87.8 °F 50.0 °F 27% 30.24 in 10.0 mi South 10.4 mph - N/A   Unknown
11:35 AM 87.8 °F 50.0 °F 27% 30.24 in 10.0 mi WSW 5.8 mph - N/A   Unknown
11:55 AM 89.6 °F 50.0 °F 26% 30.23 in 10.0 mi SSW 9.2 mph - N/A   Unknown
12:15 PM 89.6 °F 50.0 °F 26% - 10.0 mi SSE 9.2 mph - N/A   Unknown
12:35 PM 89.6 °F 48.2 °F 24% - - SSE 5.8 mph 16.1 mph N/A   Unknown
12:55 PM 91.4 °F 48.2 °F 23% - - SSW 9.2 mph - N/A   Unknown
1:15 PM - - N/A% - - North - - N/A   Unknown
1:35 PM - - N/A% - - North - - N/A   Unknown
1:55 PM - - N/A% - - North - - N/A   Unknown
2:15 PM - - N/A% - - North - - N/A   Unknown
2:35 PM - - N/A% - - North - - N/A   Unknown
2:55 PM - - N/A% - - North - - N/A   Unknown
3:15 PM - - N/A% - - North - - N/A   Unknown
3:35 PM - - N/A% - - North - - N/A   Unknown
3:55 PM - - N/A% - - North - - N/A   Unknown
4:15 PM - - N/A% - - North - - N/A   Unknown
4:35 PM - - N/A% - - North - - N/A   Unknown
4:55 PM - - N/A% - - North - - N/A   Unknown
5:15 PM - - N/A% - - North - - N/A   Unknown
5:35 PM - - N/A% - - North - - N/A   Unknown
5:55 PM - - N/A% - - North - - N/A   Unknown
6:15 PM - - N/A% - - North - - N/A   Unknown
6:35 PM - - N/A% - - North - - N/A   Unknown
6:55 PM - - N/A% - - North - - N/A   Unknown
7:15 PM - - N/A% - - North - - N/A   Unknown
7:35 PM - - N/A% - - North - - N/A   Unknown
7:55 PM - - N/A% - - North - - N/A   Unknown
8:15 PM - - N/A% - - North - - N/A   Unknown
8:35 PM - - N/A% - - North - - N/A   Unknown
8:55 PM - - N/A% - - North - - N/A   Unknown
9:15 PM - - N/A% - - North - - N/A   Unknown
9:35 PM - - N/A% - - North - - N/A   Unknown
9:55 PM - - N/A% - - North - - N/A   Unknown
10:15 PM - - N/A% - - North - - N/A   Unknown
10:35 PM - - N/A% - - North - - N/A   Unknown
10:55 PM - - N/A% - - North - - N/A   Unknown
11:15 PM - - N/A% - - North - - N/A   Unknown
11:35 PM - - N/A% - - North - - N/A   Unknown
11:55 PM - - N/A% - - North - - N/A   Unknown